BRO-14

operational
NORAD ID: 60551 Int'l Des: 2024-149 Owner: UNSEEN Country: F
LEOCIRCULARRETROGRADESSO

BRO-14について

説明を読み込み中...

リアルタイム位置

3D地球を読み込み中...

次回通過

高度履歴

Altitude vs Time

uPlot chart will show altitude changes over time

軌道要素

1 60551U 24149CM 26063.12094862 .00001495 00000-0 13862-3 0 9998
2 60551 97.6945 140.7757 0008139 89.8805 270.3349 14.95911798 84283
Epoch: Mar 4, 2026 • Age: 12 hours

現在のステータス

高度 591.7 km
速度 7.56 km/s
衛星直下点 -25.94°S, 156.35°E
打ち上げ日 Aug 16, 2024
運用期間 1.5 years
タイプ other

技術仕様

分類 Payload
質量 15.00 kg
乾燥質量 15.00 kg
総質量 15.00 kg
長さ 0.40 m
直径 0.20 m
スパン 0.40 m
形状 Box
製造者 GOMSP
バスタイプ Cubesat 8U
フェーズステータス In Orbit
所有者/国 UNSEEN/F

大規模コンステレーション

Loading constellations...